TimeCDT,TemperatureF,Dew PointF,Humidity,Sea Level PressureIn,VisibilityMPH,Wind Direction,Wind SpeedMPH,Gust SpeedMPH,PrecipitationIn,Events,Conditions,WindDirDegrees,DateUTC
12:53 AM,63.0,51.1,65,30.08,10.0,NNW,5.8,-,N/A,,Mostly Cloudy,340,2013-08-22 05:53:00
1:53 AM,60.1,50.0,69,30.10,10.0,NW,6.9,-,N/A,,Partly Cloudy,320,2013-08-22 06:53:00
2:53 AM,55.9,46.9,72,30.11,10.0,NNW,4.6,-,N/A,,Clear,330,2013-08-22 07:53:00
3:53 AM,52.0,46.0,80,30.12,10.0,North,4.6,-,N/A,,Clear,350,2013-08-22 08:53:00
4:53 AM,48.9,45.0,86,30.14,10.0,West,3.5,-,N/A,,Clear,270,2013-08-22 09:53:00
5:53 AM,48.0,45.0,89,30.15,10.0,West,3.5,-,N/A,,Clear,270,2013-08-22 10:53:00
6:53 AM,46.9,44.1,90,30.17,10.0,West,4.6,-,N/A,,Partly Cloudy,280,2013-08-22 11:53:00
7:53 AM,54.0,46.9,77,30.18,10.0,West,3.5,-,N/A,,Clear,280,2013-08-22 12:53:00
8:53 AM,62.1,48.0,60,30.18,10.0,North,5.8,-,N/A,,Clear,360,2013-08-22 13:53:00
9:53 AM,66.9,48.9,52,30.17,10.0,NNW,4.6,-,N/A,,Clear,340,2013-08-22 14:53:00
10:53 AM,71.1,48.0,44,30.17,10.0,Calm,Calm,-,N/A,,Clear,0,2013-08-22 15:53:00
11:53 AM,73.9,48.0,40,30.17,10.0,NE,4.6,-,N/A,,Clear,40,2013-08-22 16:53:00
12:53 PM,77.0,44.1,31,30.15,10.0,NNW,8.1,-,N/A,,Clear,340,2013-08-22 17:53:00
1:53 PM,77.0,42.1,29,30.14,10.0,Calm,Calm,-,N/A,,Clear,0,2013-08-22 18:53:00
2:53 PM,78.1,42.1,28,30.13,10.0,ENE,6.9,-,N/A,,Clear,60,2013-08-22 19:53:00
3:53 PM,79.0,43.0,28,30.13,10.0,NNW,4.6,-,N/A,,Clear,340,2013-08-22 20:53:00
4:53 PM,80.1,43.0,27,30.11,10.0,North,5.8,-,N/A,,Clear,350,2013-08-22 21:53:00
5:53 PM,79.0,42.1,27,30.09,10.0,East,3.5,-,N/A,,Partly Cloudy,100,2013-08-22 22:53:00
6:53 PM,79.0,43.0,28,30.09,10.0,East,3.5,-,N/A,,Partly Cloudy,80,2013-08-22 23:53:00
7:53 PM,73.0,46.0,38,30.08,10.0,East,5.8,-,N/A,,Partly Cloudy,80,2013-08-23 00:53:00
8:53 PM,69.1,46.0,44,30.09,10.0,SSE,5.8,-,N/A,,Partly Cloudy,150,2013-08-23 01:53:00
9:53 PM,61.0,48.0,62,30.09,10.0,South,4.6,-,N/A,,Partly Cloudy,190,2013-08-23 02:53:00
10:53 PM,57.9,48.0,70,30.09,10.0,South,3.5,-,N/A,,Partly Cloudy,170,2013-08-23 03:53:00
11:53 PM,59.0,46.9,64,30.09,10.0,SE,5.8,-,N/A,,Clear,140,2013-08-23 04:53:00